To NAV CANADA Home Page Login to a new session Search on AWWS site Feedback and Comments Disclaimer Vers la page française équivalente Tips FAQ What's new on the site To the Forecasts and Observations / NOTAM section To "File a Flight Plan" website Publications and other links Update of the User's profile FIC Telephone Numbers My Weather Data Folder Route Weather Data Regional Weather Data Local Weather Data To the Forecasts and Observations / NOTAM section
Request Generated 12/04/2016 at 22:20:43 UTC . Weather information available at that time is displayed.

METAR/TAF

KANGIQSUALUJJUAQ (GEORGES RIVER)/QC    

LWIS CYLU 042200Z AUTO 17015KT M10/M12 A2987=
LWIS CYLU 042100Z AUTO 17013KT M09/M12 A2988=
METAR CYLU 042000Z 16013KT 14SM -SN SCT016 BKN037 M09/M12 A2988 RMK
SC4SC3 LAST STFD OBS/NEXT 051300UTC SLP126=

CYLU - No TAF is issued for this station

Your time UTC time
Weather data provided by Environment Canada and NAV CANADA